Regional Weather Roundup
Issued by NWS Charleston, SC

Home | Current Version | Previous Version | Text Only | Print | Product List | Glossary On
Versions: 1 2 3 4 5 6 7 8 9 10 11 12 13 14 15 16 17 18 19 20 21 22 23 24 25 26 27 28 29 30 31 32 33 34 35 36 37 38 39 40 41 42 43 44 45 46 47 48 49 50
000
ASUS42 KCHS 220827
RWRCHS

Regional Weather Roundup
National Weather Service Charleston SC
400 AM EDT SUN APR 22 2018

NOTE: "fair" indicates few or no clouds below 12,000 feet with no
significant weather and/or obstructions to visibility.

Not all stations are quality controlled. Use data with caution,
especially dewpoint observations.

SCZ027-030-031-034>040-042>050-220900-
...Southeast South Carolina...

CITY           SKY/WX    TMP DP  RH WIND       PRES   REMARKS
N Charleston   FAIR      57  55  93 NE7       30.27F
Waterfront Prk NOT AVBL
Mount Pleasant FAIR      57  55  94 CALM      30.28S
Johns Island   FAIR      61  57  88 NE8       30.27S
Pinopolis        N/A     57  54  88 E6        30.20F
Moncks Corner  FAIR      54  50  87 E5        30.29S
Summerville    CLOUDY    54  52  94 CALM      30.29S
Beaufort MCAS  FAIR      64  58  80 E8        30.25F
Beaufort Arpt  FAIR      63  57  82 E12       30.25R
Hilton Head Is FAIR      64  59  82 NE8       30.25S
Walterboro     CLOUDY    57  54  88 E8        30.29R
Allendale      PTSUNNY   59  54  82 CALM      30.27R

...Southern Midlands and Pee Dee...

CITY           SKY/WX    TMP DP  RH WIND       PRES   REMARKS
Georgetown     FAIR      50  48  93 CALM      30.31S
Kingstree      FAIR      50  48  93 CALM      30.31S
Orangeburg     CLOUDY    57  50  77 E6        30.29S
Barnwell       CLOUDY    59  52  77 CALM      30.28S
Aiken          CLOUDY    55  50  82 E3        30.32S
Manning        FAIR      46  45  93 E3        30.31R
Columbia       MOCLDY    57  51  80 E8        30.29F
Sumter         FAIR      50  46  86 N5        30.29S
Florence       FAIR      49  46  90 NE5       30.33S
Myrtle Beach   MOCLDY    56  51  84 N5        30.33S
N Myrtle Beach FAIR      51  49  92 N3        30.31F

$$

GAZ063-065-086>088-099>101-113>116-118-119-134>141-150-220900-
...Southeast Georgia...

CITY           SKY/WX    TMP DP  RH WIND       PRES   REMARKS
Savannah Arpt  MOCLDY    63  57  81 E6        30.24F
Hunter AAF     FAIR      64  58  82 E3        30.21S
Fort Stewart   FAIR      58  55  90 NE5       30.21F
Statesboro     FAIR      58  52  80 CALM      30.26R
Sylvania       FAIR      57  55  94 E5        30.27R
Claxton        FAIR      59  56  89 NE5       30.24R

...CSRA, Central and far Southeast Georgia...

CITY           SKY/WX    TMP DP  RH WIND       PRES   REMARKS
Thomson        CLOUDY    60  51  74 S6        30.32S
Augusta-Bush   CLOUDY    59  53  80 E3        30.27S
Augusta-Daniel CLOUDY    61  52  72 E7        30.28S
Swainsboro     FAIR      57  54  88 E6        30.25F
Vidalia        MOCLDY    59  55  88 E3        30.24F
Eastman        CLOUDY    61  49  64 E8        30.25S
Hazlehurst     FAIR      60  55  82 E3        30.21S
Alma           CLOUDY    61  57  87 E5        30.20F
Waycross       CLOUDY    63  60  90 E8        30.19S
Jesup          FAIR      59  55  88 CALM      30.22S
Baxley         CLOUDY    55  55 100 NE6       30.21F
Brunswick      CLOUDY    64  57  77 E7        30.21S
Saint Simons   CLOUDY    67  61  81 E8        30.20S

$$

SCZ027-028-034-036>038-045-046-048>050-GAZ119-141-220900-
...Lake and Supplemental Coastal Observations...

STATION/POSITION TIME  TEMP    WIND        PRES    WAVE   SWELL
                       AIR SEA DIR/SP/G            HT/PER HT/PER/DIR
                 (UTC) (F)     (DEG/KT/KT) (MB)    (FT/S) (FT/S/D)
Winyah Bay       0745   62      60/  7     1026.0S
Lake Murray      0720   57      60/  2/  6 1025.4
ACE Basin NERRS  0745   62     350/  3       N/A
Fort Pulaski     0800   65 65   60/  9/ 12 1024.2
Sapelo Island    0800   64      80/  4     1023.0

$$

ANZ835-935-AMZ111-154-330-350-352-354-370-450-454-472-220900-
...C-MAN and Buoy Observations...

STATION/POSITION TIME  TEMP    WIND        PRES    WAVE   SWELL
                       AIR SEA DIR/SP/G            HT/PER HT/PER/DIR
                 (UTC) (F)     (DEG/KT/KT) (MB)    (FT/S) (FT/S/D)
Buoy 41004       0810   68 67  100/ 12/ 16 1024.6
Buoy 41008       0750   67 65  100/ 10/ 12 1022.6F   4/ 7   3/110/ 7
Folly Beach CMAN 0800   63      60/ 12/ 14 1025.4F
Capers Nearshore 0808   63 63   70/ 12/ 17 1025.2F
Fripp Nearshore  0808   64 63   70/ 10/ 16 1023.6F


STATION/POSITION TIME  TEMP    WIND        PRES    WAVE   SWELL
                       AIR SEA DIR/SP/G            HT/PER HT/PER/DIR
                 (UTC) (F)     (DEG/KT/KT) (MB)    (FT/S) (FT/S/D)
5E St. Marys GA  0800      66                N/A     5/ 7
Frying Pan Buoy  0800   66 70  110/ 10/ 12 1026.1
Buoy 41025       0810   58 73   20/  8/ 12 1028.7
Cape Lookout NC  0800           80/ 10/ 11 1028.2F
Buoy 41002       0800   65 72   80/ 10/ 14 1025.5
Buoy 41010       0800   72 76   80/ 19/ 23 1021.4
St Augustine FL  0800   69 67  100/ 15/ 16 1021.9S


$$




USA.gov is the U.S. government's official web portal to all federal, state and local government web resources and services.